Time,TemperatureF,DewpointF,PressureIn,WindDirection,WindDirectionDegrees,WindSpeedMPH,WindSpeedGustMPH,Humidity,HourlyPrecipIn,Conditions,Clouds,dailyrainin,SoftwareType,DateUTC
2013-06-07 00:01:00,56.8,51.7,30.09,North,0,0.0,0.0,83,0.00,,---,0.00,VWS V14.01,2013-06-07 05:01:00,
2013-06-07 00:06:00,56.8,51.7,30.09,North,0,0.0,0.0,83,0.00,,---,0.00,VWS V14.01,2013-06-07 05:06:00,
2013-06-07 00:11:00,57.0,52.2,30.09,North,0,0.0,0.0,84,0.00,,---,0.00,VWS V14.01,2013-06-07 05:11:00,
2013-06-07 00:16:00,57.0,52.2,30.09,NW,315,0.0,0.0,84,0.00,,---,0.00,VWS V14.01,2013-06-07 05:16:00,
2013-06-07 00:22:00,56.8,52.4,30.09,NW,315,0.0,0.0,85,0.00,,---,0.00,VWS V14.01,2013-06-07 05:22:00,
2013-06-07 00:27:00,56.5,52.0,30.09,NW,315,0.0,0.0,85,0.00,,---,0.00,VWS V14.01,2013-06-07 05:27:00,
2013-06-07 00:32:00,56.5,52.0,30.09,NW,315,0.0,0.0,85,0.00,,---,0.00,VWS V14.01,2013-06-07 05:32:00,
2013-06-07 00:37:00,56.3,52.2,30.09,NW,315,0.0,0.0,86,0.00,,---,0.00,VWS V14.01,2013-06-07 05:37:00,
2013-06-07 00:43:00,56.3,52.2,30.09,NW,315,0.0,0.0,86,0.00,,---,0.00,VWS V14.01,2013-06-07 05:43:00,
2013-06-07 00:48:00,56.1,52.3,30.09,NW,315,0.0,0.0,87,0.00,,---,0.00,VWS V14.01,2013-06-07 05:48:00,
2013-06-07 00:53:00,55.9,52.1,30.09,NW,315,0.0,0.0,87,0.00,,---,0.00,VWS V14.01,2013-06-07 05:53:00,
2013-06-07 00:58:00,55.8,52.0,30.09,NW,315,0.0,0.0,87,0.00,,---,0.00,VWS V14.01,2013-06-07 05:58:00,
2013-06-07 01:04:00,55.9,51.8,30.09,NW,315,0.0,0.0,86,0.00,,---,0.00,VWS V14.01,2013-06-07 06:04:00,
2013-06-07 01:09:00,55.9,52.1,30.09,NW,315,0.0,0.0,87,0.00,,---,0.00,VWS V14.01,2013-06-07 06:09:00,
2013-06-07 01:14:00,55.9,52.1,30.09,NW,315,0.0,0.0,87,0.00,,---,0.00,VWS V14.01,2013-06-07 06:14:00,
2013-06-07 01:19:00,55.8,52.0,30.09,NW,315,0.0,0.0,87,0.00,,---,0.00,VWS V14.01,2013-06-07 06:19:00,
2013-06-07 01:25:00,55.6,52.1,30.09,NW,315,0.0,0.0,88,0.00,,---,0.00,VWS V14.01,2013-06-07 06:25:00,
2013-06-07 01:30:00,55.4,51.9,30.09,NW,315,0.0,0.0,88,0.00,,---,0.00,VWS V14.01,2013-06-07 06:30:00,
2013-06-07 01:35:00,55.2,52.0,30.09,NW,315,0.0,0.0,89,0.00,,---,0.00,VWS V14.01,2013-06-07 06:35:00,
2013-06-07 01:40:00,55.2,52.0,30.09,NW,315,0.0,0.0,89,0.00,,---,0.00,VWS V14.01,2013-06-07 06:40:00,
2013-06-07 01:47:00,55.0,51.9,30.09,NW,315,0.0,0.0,89,0.00,,---,0.00,VWS V14.01,2013-06-07 06:47:00,
2013-06-07 01:52:00,54.9,51.7,30.09,NW,315,0.0,0.0,89,0.00,,---,0.00,VWS V14.01,2013-06-07 06:52:00,
2013-06-07 01:57:00,55.0,51.9,30.09,NW,315,0.0,0.9,89,0.00,,---,0.00,VWS V14.01,2013-06-07 06:57:00,
2013-06-07 02:02:00,55.0,52.2,30.09,NW,315,0.0,0.0,90,0.00,,---,0.00,VWS V14.01,2013-06-07 07:02:00,
2013-06-07 02:07:00,54.9,52.0,30.09,NW,315,0.0,0.0,90,0.00,,---,0.00,VWS V14.01,2013-06-07 07:07:00,
2013-06-07 02:12:00,54.7,51.8,30.09,NW,315,0.0,0.0,90,0.00,,---,0.00,VWS V14.01,2013-06-07 07:12:00,
2013-06-07 02:17:00,54.7,51.8,30.09,NW,315,0.0,0.0,90,0.00,,---,0.00,VWS V14.01,2013-06-07 07:17:00,
2013-06-07 02:22:00,54.5,51.6,30.09,NW,315,0.0,0.0,90,0.00,,---,0.00,VWS V14.01,2013-06-07 07:22:00,
2013-06-07 02:28:00,54.5,51.9,30.12,NW,315,0.0,0.0,91,0.00,,---,0.00,VWS V14.01,2013-06-07 07:28:00,
2013-06-07 02:33:00,54.5,51.6,30.12,NW,315,0.0,0.9,90,0.00,,---,0.00,VWS V14.01,2013-06-07 07:33:00,
2013-06-07 02:38:00,54.3,51.5,30.12,NW,315,0.0,0.0,90,0.00,,---,0.00,VWS V14.01,2013-06-07 07:38:00,
2013-06-07 02:43:00,54.5,51.6,30.09,NW,315,0.0,0.0,90,0.00,,---,0.00,VWS V14.01,2013-06-07 07:43:00,
2013-06-07 02:49:00,54.7,52.1,30.09,NW,315,1.1,1.3,91,0.00,,---,0.00,VWS V14.01,2013-06-07 07:49:00,
2013-06-07 02:54:00,54.7,52.1,30.09,NW,315,1.3,1.6,91,0.00,,---,0.00,VWS V14.01,2013-06-07 07:54:00,
2013-06-07 02:59:00,54.7,52.1,30.09,NW,315,1.3,1.3,91,0.00,,---,0.00,VWS V14.01,2013-06-07 07:59:00,
2013-06-07 03:05:00,54.7,52.1,30.09,NW,315,0.9,1.1,91,0.00,,---,0.00,VWS V14.01,2013-06-07 08:05:00,
2013-06-07 03:10:00,54.7,52.1,30.09,NW,315,0.0,0.0,91,0.00,,---,0.00,VWS V14.01,2013-06-07 08:10:00,
2013-06-07 03:16:00,54.5,51.9,30.09,NW,315,0.0,1.1,91,0.00,,---,0.00,VWS V14.01,2013-06-07 08:16:00,
2013-06-07 03:21:00,54.3,51.8,30.09,NW,315,0.0,0.0,91,0.00,,---,0.00,VWS V14.01,2013-06-07 08:21:00,
2013-06-07 03:26:00,54.1,51.6,30.09,NW,315,0.0,0.0,91,0.00,,---,0.00,VWS V14.01,2013-06-07 08:26:00,
2013-06-07 03:31:00,54.0,51.4,30.09,NW,315,0.0,0.0,91,0.00,,---,0.00,VWS V14.01,2013-06-07 08:31:00,
2013-06-07 03:36:00,53.8,51.2,30.09,NW,315,0.0,0.0,91,0.00,,---,0.00,VWS V14.01,2013-06-07 08:36:00,
2013-06-07 03:42:00,53.6,51.0,30.09,NW,315,0.0,0.0,91,0.00,,---,0.00,VWS V14.01,2013-06-07 08:42:00,
2013-06-07 03:47:00,53.4,51.2,30.09,NW,315,0.0,0.0,92,0.00,,---,0.00,VWS V14.01,2013-06-07 08:47:00,
2013-06-07 03:52:00,53.4,51.2,30.09,NW,315,0.0,0.0,92,0.00,,---,0.00,VWS V14.01,2013-06-07 08:52:00,
2013-06-07 03:57:00,53.2,51.0,30.09,NW,315,0.0,0.0,92,0.00,,---,0.00,VWS V14.01,2013-06-07 08:57:00,
2013-06-07 04:02:00,53.2,51.3,30.09,NW,315,0.0,0.0,93,0.00,,---,0.00,VWS V14.01,2013-06-07 09:02:00,
2013-06-07 04:07:00,53.1,50.8,30.09,NW,315,0.0,0.0,92,0.00,,---,0.00,VWS V14.01,2013-06-07 09:07:00,
2013-06-07 04:13:00,53.2,51.3,30.09,NW,315,0.9,1.1,93,0.00,,---,0.00,VWS V14.01,2013-06-07 09:13:00,
2013-06-07 04:18:00,53.2,51.3,30.09,NW,315,1.1,1.1,93,0.00,,---,0.00,VWS V14.01,2013-06-07 09:18:00,
2013-06-07 04:23:00,53.2,51.3,30.09,NW,315,0.9,1.1,93,0.00,,---,0.00,VWS V14.01,2013-06-07 09:23:00,
2013-06-07 04:29:00,53.2,51.3,30.09,NW,315,1.1,1.3,93,0.00,,---,0.00,VWS V14.01,2013-06-07 09:29:00,
2013-06-07 04:34:00,53.6,51.6,30.09,NNW,338,1.6,1.6,93,0.00,,---,0.00,VWS V14.01,2013-06-07 09:34:00,
2013-06-07 04:39:00,53.6,51.6,30.09,NNW,338,1.3,1.6,93,0.00,,---,0.00,VWS V14.01,2013-06-07 09:39:00,
2013-06-07 04:44:00,53.6,51.6,30.09,NNW,338,0.0,0.0,93,0.00,,---,0.00,VWS V14.01,2013-06-07 09:44:00,
2013-06-07 04:49:00,53.6,51.6,30.09,NNW,338,0.0,2.2,93,0.00,,---,0.00,VWS V14.01,2013-06-07 09:49:00,
2013-06-07 04:55:00,53.6,51.6,30.09,NW,315,0.9,2.0,93,0.00,,---,0.00,VWS V14.01,2013-06-07 09:55:00,
2013-06-07 05:00:00,53.6,51.6,30.09,NW,315,0.0,0.0,93,0.00,,---,0.00,VWS V14.01,2013-06-07 10:00:00,
2013-06-07 05:05:00,53.4,51.5,30.09,NW,315,0.0,0.0,93,0.00,,---,0.00,VWS V14.01,2013-06-07 10:05:00,
2013-06-07 05:10:00,53.2,51.3,30.09,NW,315,0.0,0.0,93,0.00,,---,0.00,VWS V14.01,2013-06-07 10:10:00,
2013-06-07 05:16:00,53.1,51.1,30.09,NW,315,0.0,0.0,93,0.00,,---,0.00,VWS V14.01,2013-06-07 10:16:00,
2013-06-07 05:22:00,53.1,51.1,30.09,NW,315,1.6,1.6,93,0.00,,---,0.00,VWS V14.01,2013-06-07 10:22:00,
2013-06-07 05:27:00,53.2,51.3,30.09,NW,315,0.0,1.3,93,0.00,,---,0.00,VWS V14.01,2013-06-07 10:27:00,
2013-06-07 05:32:00,53.2,51.3,30.09,NW,315,0.0,0.0,93,0.00,,---,0.00,VWS V14.01,2013-06-07 10:32:00,
2013-06-07 05:37:00,53.4,51.7,30.09,NNW,338,2.7,2.7,94,0.00,,---,0.00,VWS V14.01,2013-06-07 10:37:00,
2013-06-07 05:42:00,53.8,52.1,30.09,NNW,338,0.9,1.6,94,0.00,,---,0.00,VWS V14.01,2013-06-07 10:42:00,
2013-06-07 05:47:00,53.8,52.1,30.09,NNW,338,1.1,2.0,94,0.00,,---,0.00,VWS V14.01,2013-06-07 10:47:00,
2013-06-07 05:52:00,53.6,51.6,30.09,NNW,338,0.0,0.0,93,0.00,,---,0.00,VWS V14.01,2013-06-07 10:52:00,
2013-06-07 05:58:00,53.2,51.3,30.09,NNW,338,1.6,1.6,93,0.00,,---,0.00,VWS V14.01,2013-06-07 10:58:00,
2013-06-07 06:03:00,53.2,51.3,30.09,NW,315,1.3,1.3,93,0.00,,---,0.00,VWS V14.01,2013-06-07 11:03:00,
2013-06-07 06:08:00,53.2,51.6,30.09,NW,315,0.0,0.0,94,0.00,,---,0.00,VWS V14.01,2013-06-07 11:08:00,
2013-06-07 06:13:00,53.2,51.6,30.09,NNW,338,2.2,2.2,94,0.00,,---,0.00,VWS V14.01,2013-06-07 11:13:00,
2013-06-07 06:19:00,53.2,51.6,30.09,NNW,338,1.1,1.3,94,0.00,,---,0.00,VWS V14.01,2013-06-07 11:19:00,
2013-06-07 06:24:00,53.6,51.9,30.09,NNW,338,2.0,3.1,94,0.00,,---,0.00,VWS V14.01,2013-06-07 11:24:00,
2013-06-07 06:30:00,53.8,52.1,30.09,NNW,338,1.1,1.3,94,0.00,,---,0.00,VWS V14.01,2013-06-07 11:30:00,
2013-06-07 06:35:00,54.3,52.6,30.09,North,0,0.0,1.6,94,0.00,,---,0.00,VWS V14.01,2013-06-07 11:35:00,
2013-06-07 06:40:00,54.9,53.2,30.09,North,0,0.0,1.3,94,0.00,,---,0.00,VWS V14.01,2013-06-07 11:40:00,
2013-06-07 06:45:00,55.6,53.9,30.09,NNE,22,1.1,2.2,94,0.00,,---,0.00,VWS V14.01,2013-06-07 11:45:00,
2013-06-07 06:50:00,56.1,54.4,30.09,NNE,22,1.1,1.1,94,0.00,,---,0.00,VWS V14.01,2013-06-07 11:50:00,
2013-06-07 06:55:00,56.7,55.0,30.09,North,0,1.3,1.3,94,0.00,,---,0.00,VWS V14.01,2013-06-07 11:55:00,
2013-06-07 07:01:00,57.6,55.8,30.09,NNE,22,1.1,1.3,94,0.00,,---,0.00,VWS V14.01,2013-06-07 12:01:00,
2013-06-07 07:06:00,58.1,56.4,30.09,North,0,2.5,2.5,94,0.00,,---,0.00,VWS V14.01,2013-06-07 12:06:00,
2013-06-07 07:11:00,58.8,56.8,30.09,NNW,338,1.3,2.0,93,0.00,,---,0.00,VWS V14.01,2013-06-07 12:11:00,
2013-06-07 07:16:00,59.5,56.9,30.09,North,0,2.5,2.5,91,0.00,,---,0.00,VWS V14.01,2013-06-07 12:16:00,
2013-06-07 07:22:00,60.3,57.0,30.09,NE,45,2.7,3.8,89,0.00,,---,0.00,VWS V14.01,2013-06-07 12:22:00,
2013-06-07 07:27:00,60.8,56.3,30.09,NNE,22,2.5,2.5,85,0.00,,---,0.00,VWS V14.01,2013-06-07 12:27:00,
2013-06-07 07:32:00,61.5,56.7,30.09,North,0,1.3,2.0,84,0.00,,---,0.00,VWS V14.01,2013-06-07 12:32:00,
2013-06-07 07:37:00,62.6,56.7,30.09,NNE,22,3.4,3.8,81,0.00,,---,0.00,VWS V14.01,2013-06-07 12:37:00,
2013-06-07 07:42:00,63.1,56.2,30.09,NE,45,3.4,3.8,78,0.00,,---,0.00,VWS V14.01,2013-06-07 12:42:00,
2013-06-07 07:47:00,64.0,57.0,30.09,NNE,22,0.0,1.1,78,0.00,,---,0.00,VWS V14.01,2013-06-07 12:47:00,
2013-06-07 07:52:00,64.8,56.3,30.09,NE,45,1.3,3.8,74,0.00,,---,0.00,VWS V14.01,2013-06-07 12:52:00,
2013-06-07 07:57:00,65.3,56.4,30.09,NNE,22,2.0,2.5,73,0.00,,---,0.00,VWS V14.01,2013-06-07 12:57:00,
2013-06-07 08:02:00,66.2,56.9,30.09,NE,45,1.1,2.5,72,0.00,,---,0.00,VWS V14.01,2013-06-07 13:02:00,
2013-06-07 08:07:00,66.6,56.5,30.09,North,0,2.5,3.1,70,0.00,,---,0.00,VWS V14.01,2013-06-07 13:07:00,
2013-06-07 08:12:00,67.3,57.2,30.09,NW,315,2.5,2.5,70,0.00,,---,0.00,VWS V14.01,2013-06-07 13:12:00,
2013-06-07 08:18:00,68.2,56.4,30.09,NNE,22,2.5,3.6,66,0.00,,---,0.00,VWS V14.01,2013-06-07 13:18:00,
2013-06-07 08:23:00,68.4,56.6,30.09,NNE,22,1.6,1.6,66,0.00,,---,0.00,VWS V14.01,2013-06-07 13:23:00,
2013-06-07 08:28:00,68.4,56.6,30.09,NNW,338,1.1,2.5,66,0.00,,---,0.00,VWS V14.01,2013-06-07 13:28:00,
2013-06-07 08:33:00,68.4,56.6,30.09,NNW,338,2.5,2.5,66,0.00,,---,0.00,VWS V14.01,2013-06-07 13:33:00,
2013-06-07 08:39:00,68.4,56.6,30.09,NNW,338,2.0,2.0,66,0.00,,---,0.00,VWS V14.01,2013-06-07 13:39:00,
2013-06-07 08:44:00,68.4,56.6,30.06,NW,315,2.9,2.9,66,0.00,,---,0.00,VWS V14.01,2013-06-07 13:44:00,
2013-06-07 08:49:00,71.8,57.2,30.06,NW,315,0.9,1.6,60,0.00,,---,0.00,VWS V14.01,2013-06-07 13:49:00,
2013-06-07 08:54:00,73.4,57.7,30.06,East,90,2.5,2.5,58,0.00,,---,0.00,VWS V14.01,2013-06-07 13:54:00,
2013-06-07 09:00:00,74.3,57.6,30.09,NNW,338,2.5,2.5,56,0.00,,---,0.00,VWS V14.01,2013-06-07 14:00:00,
2013-06-07 09:05:00,74.7,56.9,30.09,SW,225,2.7,2.9,54,0.00,,---,0.00,VWS V14.01,2013-06-07 14:05:00,
2013-06-07 09:10:00,75.0,56.8,30.09,NW,315,0.0,1.3,53,0.00,,---,0.00,VWS V14.01,2013-06-07 14:10:00,
2013-06-07 09:15:00,75.9,57.0,30.09,ENE,68,2.5,2.7,52,0.00,,---,0.00,VWS V14.01,2013-06-07 14:15:00,
2013-06-07 09:21:00,75.7,55.2,30.09,NNW,338,0.0,2.7,49,0.00,,---,0.00,VWS V14.01,2013-06-07 14:21:00,
2013-06-07 09:26:00,76.8,56.2,30.09,NNW,338,3.1,3.1,49,0.00,,---,0.00,VWS V14.01,2013-06-07 14:26:00,
2013-06-07 09:31:00,77.7,56.5,30.09,NE,45,2.2,2.7,48,0.00,,---,0.00,VWS V14.01,2013-06-07 14:31:00,
2013-06-07 09:36:00,78.4,57.1,30.09,East,90,0.0,2.2,48,0.00,,---,0.00,VWS V14.01,2013-06-07 14:36:00,
2013-06-07 09:42:00,78.4,55.4,30.09,ENE,68,2.0,2.0,45,0.00,,---,0.00,VWS V14.01,2013-06-07 14:42:00,
2013-06-07 09:47:00,78.8,55.1,30.09,NE,45,2.5,2.5,44,0.00,,---,0.00,VWS V14.01,2013-06-07 14:47:00,
2013-06-07 09:52:00,78.6,54.9,30.09,ENE,68,0.9,2.7,44,0.00,,---,0.00,VWS V14.01,2013-06-07 14:52:00,
2013-06-07 09:57:00,79.0,54.6,30.09,ENE,68,2.9,2.9,43,0.00,,---,0.00,VWS V14.01,2013-06-07 14:57:00,
2013-06-07 10:02:00,78.8,54.4,30.09,SE,135,3.4,3.6,43,0.00,,---,0.00,VWS V14.01,2013-06-07 15:02:00,
2013-06-07 10:07:00,79.3,54.9,30.09,ENE,68,2.7,4.9,43,0.00,,---,0.00,VWS V14.01,2013-06-07 15:07:00,
2013-06-07 10:12:00,79.7,54.6,30.09,NE,45,2.9,3.4,42,0.00,,---,0.00,VWS V14.01,2013-06-07 15:12:00,
2013-06-07 10:17:00,80.2,55.1,30.09,ENE,68,2.7,2.9,42,0.00,,---,0.00,VWS V14.01,2013-06-07 15:17:00,
2013-06-07 10:22:00,79.5,53.8,30.09,ESE,112,5.8,5.8,41,0.00,,---,0.00,VWS V14.01,2013-06-07 15:22:00,
2013-06-07 10:27:00,80.2,53.8,30.09,NE,45,4.3,4.3,40,0.00,,---,0.00,VWS V14.01,2013-06-07 15:27:00,
2013-06-07 10:32:00,80.6,54.1,30.09,SE,135,2.7,4.0,40,0.00,,---,0.00,VWS V14.01,2013-06-07 15:32:00,
2013-06-07 10:37:00,81.9,55.2,30.09,NE,45,3.6,3.6,40,0.00,,---,0.00,VWS V14.01,2013-06-07 15:37:00,
2013-06-07 10:42:00,82.4,53.5,30.06,NNE,22,4.0,5.8,37,0.00,,---,0.00,VWS V14.01,2013-06-07 15:42:00,
2013-06-07 10:47:00,81.9,54.5,30.06,NNE,22,2.2,4.3,39,0.00,,---,0.00,VWS V14.01,2013-06-07 15:47:00,
2013-06-07 10:52:00,81.9,53.1,30.06,ENE,68,4.0,5.4,37,0.00,,---,0.00,VWS V14.01,2013-06-07 15:52:00,
2013-06-07 10:57:00,82.2,53.4,30.09,NE,45,3.4,3.6,37,0.00,,---,0.00,VWS V14.01,2013-06-07 15:57:00,
2013-06-07 11:02:00,82.0,53.2,30.09,NNE,22,4.7,4.7,37,0.00,,---,0.00,VWS V14.01,2013-06-07 16:02:00,
2013-06-07 11:07:00,82.9,52.5,30.09,North,0,3.6,3.6,35,0.00,,---,0.00,VWS V14.01,2013-06-07 16:07:00,
2013-06-07 11:12:00,84.6,53.9,30.09,NW,315,1.1,2.9,35,0.00,,---,0.00,VWS V14.01,2013-06-07 16:12:00,
2013-06-07 11:17:00,83.3,52.0,30.09,NNE,22,5.4,5.4,34,0.00,,---,0.00,VWS V14.01,2013-06-07 16:17:00,
2013-06-07 11:22:00,84.2,52.8,30.09,SE,135,1.3,2.7,34,0.00,,---,0.00,VWS V14.01,2013-06-07 16:22:00,
2013-06-07 11:27:00,84.4,53.0,30.09,SSW,202,2.5,2.7,34,0.00,,---,0.00,VWS V14.01,2013-06-07 16:27:00,
2013-06-07 11:32:00,84.2,52.8,30.09,NE,45,4.0,5.6,34,0.00,,---,0.00,VWS V14.01,2013-06-07 16:32:00,
2013-06-07 11:37:00,83.1,51.9,30.09,East,90,2.9,3.8,34,0.00,,---,0.00,VWS V14.01,2013-06-07 16:37:00,
2013-06-07 11:42:00,83.3,52.8,30.09,SSE,158,1.1,3.1,35,0.00,,---,0.00,VWS V14.01,2013-06-07 16:42:00,
2013-06-07 11:47:00,84.7,53.3,30.09,NNW,338,4.3,6.0,34,0.00,,---,0.00,VWS V14.01,2013-06-07 16:47:00,
2013-06-07 11:52:00,83.5,51.4,30.09,North,0,4.0,5.4,33,0.00,,---,0.00,VWS V14.01,2013-06-07 16:52:00,
2013-06-07 11:57:00,84.9,53.5,30.09,ENE,68,2.7,3.8,34,0.00,,---,0.00,VWS V14.01,2013-06-07 16:57:00,
2013-06-07 12:03:00,86.2,53.7,30.09,NNW,338,2.7,3.1,33,0.00,,---,0.00,VWS V14.01,2013-06-07 17:03:00,
2013-06-07 12:08:00,82.8,50.8,30.09,NE,45,2.7,2.9,33,0.00,,---,0.00,VWS V14.01,2013-06-07 17:08:00,
2013-06-07 12:13:00,80.4,50.3,30.09,SE,135,4.3,6.7,35,0.00,,---,0.00,VWS V14.01,2013-06-07 17:13:00,
2013-06-07 12:18:00,81.9,51.5,30.09,East,90,3.8,4.3,35,0.00,,---,0.00,VWS V14.01,2013-06-07 17:18:00,
2013-06-07 12:23:00,83.5,52.2,30.09,SE,135,4.0,5.8,34,0.00,,---,0.00,VWS V14.01,2013-06-07 17:23:00,
2013-06-07 12:28:00,84.4,53.0,30.09,NE,45,3.8,4.5,34,0.00,,---,0.00,VWS V14.01,2013-06-07 17:28:00,
2013-06-07 12:33:00,86.4,53.9,30.09,North,0,3.6,4.7,33,0.00,,---,0.00,VWS V14.01,2013-06-07 17:33:00,
2013-06-07 12:38:00,85.5,53.1,30.09,NE,45,1.3,6.3,33,0.00,,---,0.00,VWS V14.01,2013-06-07 17:38:00,
2013-06-07 12:43:00,87.6,54.2,30.09,West,270,1.6,2.7,32,0.00,,---,0.00,VWS V14.01,2013-06-07 17:43:00,
2013-06-07 12:48:00,88.5,54.1,30.09,WNW,292,1.1,3.1,31,0.00,,---,0.00,VWS V14.01,2013-06-07 17:48:00,
2013-06-07 12:53:00,87.1,52.8,30.09,ENE,68,2.5,6.3,31,0.00,,---,0.00,VWS V14.01,2013-06-07 17:53:00,
2013-06-07 12:58:00,87.1,53.7,30.09,North,0,2.0,4.0,32,0.00,,---,0.00,VWS V14.01,2013-06-07 17:58:00,
2013-06-07 13:04:00,88.2,53.7,30.09,NNW,338,1.3,3.6,31,0.00,,---,0.00,VWS V14.01,2013-06-07 18:04:00,
2013-06-07 13:09:00,85.8,53.4,30.09,East,90,5.4,6.3,33,0.00,,---,0.00,VWS V14.01,2013-06-07 18:09:00,
2013-06-07 13:14:00,82.6,50.6,30.06,NE,45,3.8,5.8,33,0.00,,---,0.00,VWS V14.01,2013-06-07 18:14:00,
2013-06-07 13:19:00,83.1,51.9,30.06,NE,45,1.6,1.6,34,0.00,,---,0.00,VWS V14.01,2013-06-07 18:19:00,
2013-06-07 13:25:00,84.9,52.6,30.06,South,180,2.5,2.7,33,0.00,,---,0.00,VWS V14.01,2013-06-07 18:25:00,
2013-06-07 13:30:00,82.8,51.6,30.06,ENE,68,5.4,5.8,34,0.00,,---,0.00,VWS V14.01,2013-06-07 18:30:00,
2013-06-07 13:35:00,81.3,50.3,30.06,NE,45,6.7,6.7,34,0.00,,---,0.00,VWS V14.01,2013-06-07 18:35:00,
2013-06-07 13:40:00,80.2,50.1,30.06,NE,45,6.3,6.3,35,0.00,,---,0.00,VWS V14.01,2013-06-07 18:40:00,
2013-06-07 13:45:00,79.3,49.3,30.06,ENE,68,4.0,6.3,35,0.00,,---,0.00,VWS V14.01,2013-06-07 18:45:00,
2013-06-07 13:51:00,81.3,51.1,30.06,SE,135,4.0,4.0,35,0.00,,---,0.00,VWS V14.01,2013-06-07 18:51:00,
2013-06-07 13:57:00,81.7,51.4,30.06,SSW,202,3.1,3.1,35,0.00,,---,0.00,VWS V14.01,2013-06-07 18:57:00,
2013-06-07 14:02:00,82.2,51.9,30.06,SSE,158,0.9,2.9,35,0.00,,---,0.00,VWS V14.01,2013-06-07 19:02:00,
2013-06-07 14:08:00,82.4,51.2,30.06,South,180,2.0,3.4,34,0.00,,---,0.00,VWS V14.01,2013-06-07 19:08:00,
2013-06-07 14:15:00,82.6,51.4,30.06,South,180,2.5,3.8,34,0.00,,---,0.00,VWS V14.01,2013-06-07 19:15:00,
2013-06-07 14:21:00,82.6,51.4,30.06,SE,135,6.0,6.3,34,0.00,,---,0.00,VWS V14.01,2013-06-07 19:21:00,
2013-06-07 14:26:00,81.1,50.1,30.03,SSW,202,3.8,4.9,34,0.00,,---,0.00,VWS V14.01,2013-06-07 19:26:00,
2013-06-07 14:31:00,81.1,50.1,30.03,South,180,3.6,3.6,34,0.00,,---,0.00,VWS V14.01,2013-06-07 19:31:00,
2013-06-07 14:36:00,81.7,50.6,30.03,SE,135,2.9,4.3,34,0.00,,---,0.00,VWS V14.01,2013-06-07 19:36:00,
2013-06-07 14:41:00,81.3,50.3,30.03,SE,135,2.9,4.0,34,0.00,,---,0.00,VWS V14.01,2013-06-07 19:41:00,
2013-06-07 14:46:00,82.0,50.9,30.03,WSW,248,2.7,2.9,34,0.00,,---,0.00,VWS V14.01,2013-06-07 19:46:00,
2013-06-07 14:51:00,82.9,51.7,30.03,SSE,158,0.9,2.0,34,0.00,,---,0.00,VWS V14.01,2013-06-07 19:51:00,
2013-06-07 14:57:00,87.1,53.7,30.03,SE,135,2.7,3.6,32,0.00,,---,0.00,VWS V14.01,2013-06-07 19:57:00,
2013-06-07 15:02:00,89.1,55.4,30.03,NNE,22,2.5,2.5,32,0.00,,---,0.00,VWS V14.01,2013-06-07 20:02:00,
2013-06-07 15:07:00,92.3,57.3,30.03,North,0,1.1,1.1,31,0.00,,---,0.00,VWS V14.01,2013-06-07 20:07:00,
2013-06-07 15:12:00,90.5,54.9,30.03,WNW,292,0.9,1.6,30,0.00,,---,0.00,VWS V14.01,2013-06-07 20:12:00,
2013-06-07 15:17:00,87.6,53.3,30.03,SSW,202,0.9,3.8,31,0.00,,---,0.00,VWS V14.01,2013-06-07 20:17:00,
2013-06-07 15:22:00,87.8,53.4,30.03,South,180,2.9,2.9,31,0.00,,---,0.00,VWS V14.01,2013-06-07 20:22:00,
2013-06-07 15:27:00,89.2,53.8,30.03,West,270,2.7,3.6,30,0.00,,---,0.00,VWS V14.01,2013-06-07 20:27:00,
2013-06-07 15:32:00,89.2,53.8,30.03,WNW,292,3.4,3.8,30,0.00,,---,0.00,VWS V14.01,2013-06-07 20:32:00,
2013-06-07 15:37:00,87.8,52.5,30.03,SSE,158,3.1,4.0,30,0.00,,---,0.00,VWS V14.01,2013-06-07 20:37:00,
2013-06-07 15:43:00,86.5,52.3,30.03,South,180,4.7,6.3,31,0.00,,---,0.00,VWS V14.01,2013-06-07 20:43:00,
2013-06-07 15:49:00,88.2,52.8,30.03,SSW,202,0.0,1.1,30,0.00,,---,0.00,VWS V14.01,2013-06-07 20:49:00,
2013-06-07 15:56:00,86.7,51.6,30.03,North,0,2.7,2.9,30,0.00,,---,0.00,VWS V14.01,2013-06-07 20:56:00,
2013-06-07 16:02:00,88.5,53.2,30.03,ENE,68,2.9,2.9,30,0.00,,---,0.00,VWS V14.01,2013-06-07 21:02:00,
2013-06-07 16:07:00,88.2,52.8,30.03,NNW,338,2.7,3.1,30,0.00,,---,0.00,VWS V14.01,2013-06-07 21:07:00,
2013-06-07 16:12:00,90.1,54.5,30.03,ENE,68,0.9,2.5,30,0.04,,---,0.04,VWS V14.01,2013-06-07 21:12:00,
2013-06-07 16:19:00,90.5,53.9,30.03,ENE,68,2.5,2.7,29,0.04,,---,0.04,VWS V14.01,2013-06-07 21:19:00,
2013-06-07 16:24:00,91.0,54.4,30.03,NE,45,3.1,3.1,29,0.04,,---,0.04,VWS V14.01,2013-06-07 21:24:00,
2013-06-07 16:30:00,92.1,55.3,30.03,NE,45,2.2,2.5,29,0.04,,---,0.04,VWS V14.01,2013-06-07 21:30:00,
2013-06-07 16:37:00,93.2,55.3,30.03,North,0,1.3,3.1,28,0.04,,---,0.04,VWS V14.01,2013-06-07 21:37:00,
2013-06-07 16:42:00,90.1,53.6,30.03,SE,135,5.4,6.0,29,0.04,,---,0.04,VWS V14.01,2013-06-07 21:42:00,
2013-06-07 16:47:00,89.2,52.9,30.03,East,90,5.8,5.8,29,0.04,,---,0.04,VWS V14.01,2013-06-07 21:47:00,
2013-06-07 16:52:00,88.2,52.8,30.03,SE,135,4.3,6.3,30,0.04,,---,0.04,VWS V14.01,2013-06-07 21:52:00,
2013-06-07 16:57:00,87.8,52.5,30.00,SE,135,5.6,5.6,30,0.04,,---,0.04,VWS V14.01,2013-06-07 21:57:00,
2013-06-07 17:03:00,86.4,52.2,30.00,ENE,68,6.5,8.7,31,0.04,,---,0.04,VWS V14.01,2013-06-07 22:03:00,
2013-06-07 17:09:00,83.8,50.9,30.00,ESE,112,6.5,6.5,32,0.04,,---,0.04,VWS V14.01,2013-06-07 22:09:00,
2013-06-07 17:14:00,84.4,51.3,30.00,SE,135,2.5,3.1,32,0.00,,---,0.04,VWS V14.01,2013-06-07 22:14:00,
2013-06-07 17:20:00,86.5,53.2,30.00,ESE,112,2.5,2.5,32,0.00,,---,0.04,VWS V14.01,2013-06-07 22:20:00,
2013-06-07 17:25:00,85.1,52.0,30.00,SE,135,5.6,6.0,32,0.00,,---,0.04,VWS V14.01,2013-06-07 22:25:00,
2013-06-07 17:31:00,84.9,52.6,30.00,SSE,158,1.1,4.0,33,0.00,,---,0.04,VWS V14.01,2013-06-07 22:31:00,
2013-06-07 17:36:00,84.9,51.8,30.00,SE,135,4.9,5.6,32,0.00,,---,0.04,VWS V14.01,2013-06-07 22:36:00,
2013-06-07 17:41:00,86.0,52.7,30.00,SSE,158,2.7,4.3,32,0.00,,---,0.04,VWS V14.01,2013-06-07 22:41:00,
2013-06-07 17:47:00,86.2,52.9,30.00,East,90,3.4,4.3,32,0.00,,---,0.04,VWS V14.01,2013-06-07 22:47:00,
2013-06-07 17:52:00,85.3,53.0,30.00,South,180,2.7,4.3,33,0.00,,---,0.04,VWS V14.01,2013-06-07 22:52:00,
2013-06-07 17:57:00,85.3,52.1,29.97,SSE,158,2.7,3.1,32,0.00,,---,0.04,VWS V14.01,2013-06-07 22:57:00,
2013-06-07 18:02:00,85.5,52.3,29.97,South,180,1.6,4.0,32,0.00,,---,0.04,VWS V14.01,2013-06-07 23:02:00,
2013-06-07 18:07:00,85.3,52.1,29.97,SE,135,1.6,2.9,32,0.00,,---,0.04,VWS V14.01,2013-06-07 23:07:00,
2013-06-07 18:13:00,84.7,51.6,29.97,SSW,202,1.3,3.8,32,0.00,,---,0.04,VWS V14.01,2013-06-07 23:13:00,
2013-06-07 18:18:00,84.4,51.3,29.97,South,180,2.5,3.6,32,0.00,,---,0.04,VWS V14.01,2013-06-07 23:18:00,
2013-06-07 18:25:00,85.1,52.0,29.97,SSE,158,1.3,2.0,32,0.00,,---,0.04,VWS V14.01,2013-06-07 23:25:00,
2013-06-07 18:31:00,84.0,51.0,29.97,SSE,158,2.5,3.1,32,0.00,,---,0.04,VWS V14.01,2013-06-07 23:31:00,
2013-06-07 18:37:00,83.8,51.7,29.97,SE,135,3.4,4.3,33,0.00,,---,0.04,VWS V14.01,2013-06-07 23:37:00,
2013-06-07 18:43:00,83.5,51.4,30.00,SE,135,4.0,5.6,33,0.00,,---,0.04,VWS V14.01,2013-06-07 23:43:00,
2013-06-07 18:48:00,83.5,51.4,30.00,SSW,202,2.0,3.1,33,0.00,,---,0.04,VWS V14.01,2013-06-07 23:48:00,
2013-06-07 18:54:00,82.4,51.2,30.00,SE,135,3.8,3.8,34,0.00,,---,0.04,VWS V14.01,2013-06-07 23:54:00,
2013-06-07 18:59:00,82.4,51.2,30.00,SE,135,5.4,6.0,34,0.00,,---,0.04,VWS V14.01,2013-06-07 23:59:00,
2013-06-07 19:05:00,82.0,50.9,30.00,SSE,158,4.9,5.6,34,0.00,,---,0.04,VWS V14.01,2013-06-08 00:05:00,
2013-06-07 19:10:00,81.7,51.4,30.00,SE,135,3.4,3.4,35,0.00,,---,0.04,VWS V14.01,2013-06-08 00:10:00,
2013-06-07 19:16:00,81.3,50.3,29.97,SE,135,2.5,3.6,34,0.00,,---,0.04,VWS V14.01,2013-06-08 00:16:00,
2013-06-07 19:21:00,81.3,50.3,29.97,South,180,2.2,2.7,34,0.00,,---,0.04,VWS V14.01,2013-06-08 00:21:00,
2013-06-07 19:26:00,81.5,50.5,29.97,South,180,3.4,4.0,34,0.00,,---,0.04,VWS V14.01,2013-06-08 00:26:00,
2013-06-07 19:32:00,81.1,50.9,29.97,SSE,158,1.6,2.7,35,0.00,,---,0.04,VWS V14.01,2013-06-08 00:32:00,
2013-06-07 19:38:00,80.8,50.6,29.97,SSE,158,6.3,6.3,35,0.00,,---,0.04,VWS V14.01,2013-06-08 00:38:00,
2013-06-07 19:44:00,80.2,50.9,29.97,South,180,2.5,2.9,36,0.00,,---,0.04,VWS V14.01,2013-06-08 00:44:00,
2013-06-07 19:49:00,80.1,50.7,29.97,SSE,158,2.0,2.9,36,0.00,,---,0.04,VWS V14.01,2013-06-08 00:49:00,
2013-06-07 19:55:00,79.7,51.2,29.97,SSE,158,3.4,3.4,37,0.00,,---,0.04,VWS V14.01,2013-06-08 00:55:00,
2013-06-07 20:00:00,79.0,50.5,29.97,South,180,2.2,3.1,37,0.00,,---,0.04,VWS V14.01,2013-06-08 01:00:00,
2013-06-07 20:06:00,77.9,50.3,29.97,SSE,158,1.3,3.1,38,0.00,,---,0.04,VWS V14.01,2013-06-08 01:06:00,
2013-06-07 20:11:00,76.8,50.7,29.97,South,180,4.3,4.3,40,0.00,,---,0.04,VWS V14.01,2013-06-08 01:11:00,
2013-06-07 20:16:00,75.9,50.5,29.97,SSE,158,3.4,3.4,41,0.00,,---,0.04,VWS V14.01,2013-06-08 01:16:00,
2013-06-07 20:21:00,75.2,50.6,29.97,SSE,158,4.0,4.0,42,0.00,,---,0.04,VWS V14.01,2013-06-08 01:21:00,
2013-06-07 20:26:00,74.7,51.9,29.97,SSW,202,2.5,2.9,45,0.00,,---,0.04,VWS V14.01,2013-06-08 01:26:00,
2013-06-07 20:32:00,73.9,51.9,29.97,South,180,2.0,2.0,46,0.00,,---,0.04,VWS V14.01,2013-06-08 01:32:00,
2013-06-07 20:37:00,73.4,52.0,29.97,SSE,158,1.1,2.9,47,0.00,,---,0.04,VWS V14.01,2013-06-08 01:37:00,
2013-06-07 20:43:00,73.0,52.8,29.97,SSE,158,3.1,3.1,49,0.00,,---,0.04,VWS V14.01,2013-06-08 01:43:00,
2013-06-07 20:48:00,72.5,52.8,29.97,South,180,2.5,2.9,50,0.00,,---,0.04,VWS V14.01,2013-06-08 01:48:00,
2013-06-07 20:55:00,72.0,52.9,29.97,South,180,0.0,2.5,51,0.00,,---,0.04,VWS V14.01,2013-06-08 01:55:00,
2013-06-07 21:01:00,71.8,53.2,29.97,South,180,2.7,3.4,52,0.00,,---,0.04,VWS V14.01,2013-06-08 02:01:00,
2013-06-07 21:09:00,71.2,53.2,29.97,South,180,2.2,2.9,53,0.00,,---,0.04,VWS V14.01,2013-06-08 02:09:00,
2013-06-07 21:14:00,71.1,53.6,29.97,SSW,202,0.0,3.8,54,0.00,,---,0.04,VWS V14.01,2013-06-08 02:14:00,
2013-06-07 21:20:00,70.5,53.1,29.97,SSW,202,3.1,3.8,54,0.00,,---,0.04,VWS V14.01,2013-06-08 02:20:00,
2013-06-07 21:25:00,70.3,53.4,29.97,SE,135,1.3,1.3,55,0.00,,---,0.04,VWS V14.01,2013-06-08 02:25:00,
2013-06-07 21:31:00,70.0,53.6,29.97,South,180,1.1,2.9,56,0.00,,---,0.04,VWS V14.01,2013-06-08 02:31:00,
2013-06-07 21:36:00,69.6,53.2,29.97,South,180,0.0,1.3,56,0.00,,---,0.04,VWS V14.01,2013-06-08 02:36:00,
2013-06-07 21:41:00,69.4,53.6,30.00,SSE,158,1.3,2.9,57,0.00,,---,0.04,VWS V14.01,2013-06-08 02:41:00,
2013-06-07 21:47:00,69.1,54.2,30.00,SSE,158,2.0,4.0,59,0.00,,---,0.04,VWS V14.01,2013-06-08 02:47:00,
2013-06-07 21:53:00,69.3,54.8,30.00,SE,135,4.7,5.6,60,0.00,,---,0.04,VWS V14.01,2013-06-08 02:53:00,
2013-06-07 21:58:00,69.3,54.8,30.00,South,180,2.2,3.1,60,0.00,,---,0.04,VWS V14.01,2013-06-08 02:58:00,
2013-06-07 22:04:00,69.3,54.8,30.00,SE,135,3.1,4.9,60,0.00,,---,0.04,VWS V14.01,2013-06-08 03:04:00,
2013-06-07 22:09:00,69.1,54.6,30.00,SSE,158,1.1,2.2,60,0.00,,---,0.04,VWS V14.01,2013-06-08 03:09:00,
2013-06-07 22:14:00,68.9,54.5,30.00,SSE,158,3.1,3.1,60,0.00,,---,0.04,VWS V14.01,2013-06-08 03:14:00,
2013-06-07 22:19:00,68.9,54.9,30.00,SE,135,6.3,6.3,61,0.00,,---,0.04,VWS V14.01,2013-06-08 03:19:00,
2013-06-07 22:25:00,68.9,54.9,30.00,SSE,158,1.1,4.0,61,0.00,,---,0.04,VWS V14.01,2013-06-08 03:25:00,
2013-06-07 22:30:00,68.9,55.4,30.00,SE,135,0.9,4.0,62,0.00,,---,0.04,VWS V14.01,2013-06-08 03:30:00,
2013-06-07 22:36:00,68.7,55.2,30.00,SSE,158,2.0,2.9,62,0.00,,---,0.04,VWS V14.01,2013-06-08 03:36:00,
2013-06-07 22:42:00,68.5,55.0,30.00,South,180,0.0,1.6,62,0.00,,---,0.04,VWS V14.01,2013-06-08 03:42:00,
2013-06-07 22:48:00,68.2,55.1,30.00,South,180,2.7,2.9,63,0.00,,---,0.04,VWS V14.01,2013-06-08 03:48:00,
2013-06-07 22:53:00,68.0,55.0,30.00,South,180,2.5,3.6,63,0.00,,---,0.04,VWS V14.01,2013-06-08 03:53:00,
2013-06-07 22:58:00,67.8,55.2,30.00,SSW,202,0.9,2.7,64,0.00,,---,0.04,VWS V14.01,2013-06-08 03:58:00,
2013-06-07 23:01:00,67.8,55.2,30.00,South,180,2.5,3.6,64,0.00,,---,0.04,VWS V14.01,2013-06-08 04:01:00,
2013-06-07 23:02:00,67.6,55.5,30.00,South,180,2.0,2.5,65,0.00,,---,0.04,VWS V14.01,2013-06-08 04:02:00,
2013-06-07 23:03:00,67.6,55.5,30.00,SSE,158,2.0,2.0,65,0.00,,---,0.04,VWS V14.01,2013-06-08 04:03:00,
2013-06-07 23:06:00,67.5,55.7,30.00,SE,135,3.4,3.4,66,0.00,,---,0.04,VWS V14.01,2013-06-08 04:06:00,
2013-06-07 23:09:00,67.5,55.7,30.00,SE,135,2.7,3.1,66,0.00,,---,0.04,VWS V14.01,2013-06-08 04:09:00,
2013-06-07 23:15:00,67.3,56.0,30.00,SE,135,2.5,4.3,67,0.00,,---,0.04,VWS V14.01,2013-06-08 04:15:00,
2013-06-07 23:21:00,67.1,55.8,30.00,ESE,112,2.9,2.9,67,0.00,,---,0.04,VWS V14.01,2013-06-08 04:21:00,
2013-06-07 23:26:00,67.1,55.8,29.97,South,180,1.3,2.9,67,0.00,,---,0.04,VWS V14.01,2013-06-08 04:26:00,
2013-06-07 23:32:00,67.1,55.8,29.97,SSE,158,4.0,4.0,67,0.00,,---,0.04,VWS V14.01,2013-06-08 04:32:00,
2013-06-07 23:38:00,66.9,55.6,29.97,SSE,158,3.6,3.6,67,0.00,,---,0.04,VWS V14.01,2013-06-08 04:38:00,
2013-06-07 23:43:00,66.9,55.6,29.97,SE,135,2.7,2.9,67,0.00,,---,0.04,VWS V14.01,2013-06-08 04:43:00,
2013-06-07 23:48:00,66.7,55.5,29.97,SSW,202,0.9,2.0,67,0.00,,---,0.04,VWS V14.01,2013-06-08 04:48:00,
2013-06-07 23:53:00,66.7,55.5,29.97,SSE,158,0.0,1.6,67,0.00,,---,0.04,VWS V14.01,2013-06-08 04:53:00,
2013-06-07 23:58:00,66.6,55.3,29.97,SSE,158,2.5,2.5,67,0.00,,---,0.04,VWS V14.01,2013-06-08 04:58:00,